Time,TemperatureF,DewpointF,PressureIn,WindDirection,WindDirectionDegrees,WindSpeedMPH,WindSpeedGustMPH,Humidity,HourlyPrecipIn,Conditions,Clouds,dailyrainin,SoftwareType,DateUTC
2013-01-09 00:00:00,23.1,17.0,30.37,WNW,292,0.0,0.0,77,0.00,,---,0.00,VWS V14.01,2013-01-09 05:00:00,
2013-01-09 00:03:00,23.1,17.0,30.37,WNW,292,0.0,0.0,77,0.00,,---,0.00,VWS V14.01,2013-01-09 05:03:00,
2013-01-09 00:09:00,23.0,16.9,30.36,WNW,292,0.0,0.0,77,0.00,,---,0.00,VWS V14.01,2013-01-09 05:09:00,
2013-01-09 00:14:00,22.8,16.7,30.36,WNW,292,0.0,0.0,77,0.00,,---,0.00,VWS V14.01,2013-01-09 05:14:00,
2013-01-09 00:19:00,22.6,16.5,30.36,WNW,292,0.0,0.0,77,0.00,,---,0.00,VWS V14.01,2013-01-09 05:19:00,
2013-01-09 00:24:00,22.6,16.5,30.36,WNW,292,0.0,0.0,77,0.00,,---,0.00,VWS V14.01,2013-01-09 05:24:00,
2013-01-09 00:28:00,22.2,16.1,30.36,WNW,292,0.0,0.0,77,0.00,,---,0.00,VWS V14.01,2013-01-09 05:28:00,
2013-01-09 00:34:00,22.1,16.0,30.36,WNW,292,0.0,0.0,77,0.00,,---,0.00,VWS V14.01,2013-01-09 05:34:00,
2013-01-09 00:39:00,22.1,16.0,30.35,WNW,292,0.0,0.0,77,0.00,,---,0.00,VWS V14.01,2013-01-09 05:39:00,
2013-01-09 00:44:00,21.9,15.8,30.35,WNW,292,0.0,0.0,77,0.00,,---,0.00,VWS V14.01,2013-01-09 05:44:00,
2013-01-09 00:48:00,21.9,15.8,30.35,WNW,292,0.0,0.0,77,0.00,,---,0.00,VWS V14.01,2013-01-09 05:48:00,
2013-01-09 00:53:00,21.7,15.6,30.35,WNW,292,0.0,0.0,77,0.00,,---,0.00,VWS V14.01,2013-01-09 05:53:00,
2013-01-09 00:58:00,21.5,15.4,30.35,WNW,292,0.0,0.0,77,0.00,,---,0.00,VWS V14.01,2013-01-09 05:58:00,
2013-01-09 01:03:00,21.3,15.2,30.35,WNW,292,0.0,0.0,77,0.00,,---,0.00,VWS V14.01,2013-01-09 06:03:00,
2013-01-09 01:08:00,21.3,15.2,30.35,WNW,292,0.0,0.0,77,0.00,,---,0.00,VWS V14.01,2013-01-09 06:08:00,
2013-01-09 01:13:00,21.0,14.9,30.35,WNW,292,0.0,0.0,77,0.00,,---,0.00,VWS V14.01,2013-01-09 06:13:00,
2013-01-09 01:18:00,21.0,14.9,30.35,WNW,292,0.0,0.0,77,0.00,,---,0.00,VWS V14.01,2013-01-09 06:18:00,
2013-01-09 01:23:00,21.0,14.9,30.35,WNW,292,0.0,0.0,77,0.00,,---,0.00,VWS V14.01,2013-01-09 06:23:00,
2013-01-09 01:28:00,20.8,14.7,30.35,WNW,292,0.0,0.0,77,0.00,,---,0.00,VWS V14.01,2013-01-09 06:28:00,
2013-01-09 01:33:00,20.8,14.7,30.35,WNW,292,0.0,0.0,77,0.00,,---,0.00,VWS V14.01,2013-01-09 06:33:00,
2013-01-09 01:38:00,20.4,14.4,30.35,WNW,292,0.0,0.0,77,0.00,,---,0.00,VWS V14.01,2013-01-09 06:38:00,
2013-01-09 01:43:00,20.3,14.3,30.35,WNW,292,0.0,0.0,77,0.00,,---,0.00,VWS V14.01,2013-01-09 06:43:00,
2013-01-09 01:48:00,20.3,14.3,30.35,WNW,292,0.0,0.0,77,0.00,,---,0.00,VWS V14.01,2013-01-09 06:48:00,
2013-01-09 01:53:00,20.1,14.1,30.34,WNW,292,0.0,0.0,77,0.00,,---,0.00,VWS V14.01,2013-01-09 06:53:00,
2013-01-09 01:58:00,19.9,13.9,30.35,WNW,292,0.0,0.0,77,0.00,,---,0.00,VWS V14.01,2013-01-09 06:58:00,
2013-01-09 02:03:00,19.9,13.9,30.35,WNW,292,0.0,0.0,77,0.00,,---,0.00,VWS V14.01,2013-01-09 07:03:00,
2013-01-09 02:08:00,19.7,13.7,30.35,WNW,292,0.0,0.0,77,0.00,,---,0.00,VWS V14.01,2013-01-09 07:08:00,
2013-01-09 02:13:00,19.7,13.7,30.35,WNW,292,0.0,0.0,77,0.00,,---,0.00,VWS V14.01,2013-01-09 07:13:00,
2013-01-09 02:18:00,19.5,13.8,30.35,WNW,292,0.0,0.0,78,0.00,,---,0.00,VWS V14.01,2013-01-09 07:18:00,
2013-01-09 02:23:00,19.4,13.7,30.35,WNW,292,0.0,0.0,78,0.00,,---,0.00,VWS V14.01,2013-01-09 07:23:00,
2013-01-09 02:28:00,19.2,13.5,30.35,WNW,292,0.0,0.0,78,0.00,,---,0.00,VWS V14.01,2013-01-09 07:28:00,
2013-01-09 02:33:00,19.2,13.5,30.35,WNW,292,0.0,0.0,78,0.00,,---,0.00,VWS V14.01,2013-01-09 07:33:00,
2013-01-09 02:38:00,19.0,13.3,30.35,WNW,292,0.0,0.0,78,0.00,,---,0.00,VWS V14.01,2013-01-09 07:38:00,
2013-01-09 02:43:00,19.0,13.3,30.35,WNW,292,0.0,0.0,78,0.00,,---,0.00,VWS V14.01,2013-01-09 07:43:00,
2013-01-09 02:48:00,18.6,12.9,30.35,WNW,292,0.0,0.0,78,0.00,,---,0.00,VWS V14.01,2013-01-09 07:48:00,
2013-01-09 02:53:00,18.6,12.9,30.35,WNW,292,0.0,0.0,78,0.00,,---,0.00,VWS V14.01,2013-01-09 07:53:00,
2013-01-09 02:58:00,18.5,12.8,30.35,WNW,292,0.0,0.0,78,0.00,,---,0.00,VWS V14.01,2013-01-09 07:58:00,
2013-01-09 03:03:00,18.3,12.6,30.34,WNW,292,0.0,0.0,78,0.00,,---,0.00,VWS V14.01,2013-01-09 08:03:00,
2013-01-09 03:08:00,18.3,12.6,30.34,WNW,292,0.0,0.0,78,0.00,,---,0.00,VWS V14.01,2013-01-09 08:08:00,
2013-01-09 03:13:00,18.1,12.4,30.34,WNW,292,0.0,0.0,78,0.00,,---,0.00,VWS V14.01,2013-01-09 08:13:00,
2013-01-09 03:18:00,17.9,12.2,30.34,WNW,292,0.0,0.0,78,0.00,,---,0.00,VWS V14.01,2013-01-09 08:18:00,
2013-01-09 03:23:00,17.7,12.0,30.34,WNW,292,0.0,0.0,78,0.00,,---,0.00,VWS V14.01,2013-01-09 08:23:00,
2013-01-09 03:28:00,17.7,12.0,30.33,WNW,292,0.0,0.0,78,0.00,,---,0.00,VWS V14.01,2013-01-09 08:28:00,
2013-01-09 03:33:00,17.4,11.7,30.33,WNW,292,0.0,0.0,78,0.00,,---,0.00,VWS V14.01,2013-01-09 08:33:00,
2013-01-09 03:38:00,17.4,11.7,30.33,WNW,292,0.0,0.0,78,0.00,,---,0.00,VWS V14.01,2013-01-09 08:38:00,
2013-01-09 03:43:00,17.4,11.7,30.33,WNW,292,0.0,0.0,78,0.00,,---,0.00,VWS V14.01,2013-01-09 08:43:00,
2013-01-09 03:48:00,17.2,11.5,30.33,WNW,292,0.0,0.0,78,0.00,,---,0.00,VWS V14.01,2013-01-09 08:48:00,
2013-01-09 03:53:00,17.2,11.5,30.33,WNW,292,0.0,0.0,78,0.00,,---,0.00,VWS V14.01,2013-01-09 08:53:00,
2013-01-09 03:58:00,16.8,11.1,30.33,WNW,292,0.0,0.0,78,0.00,,---,0.00,VWS V14.01,2013-01-09 08:58:00,
2013-01-09 04:03:00,16.8,11.1,30.32,WNW,292,0.0,0.0,78,0.00,,---,0.00,VWS V14.01,2013-01-09 09:03:00,
2013-01-09 04:08:00,16.7,11.1,30.32,WNW,292,0.0,0.0,78,0.00,,---,0.00,VWS V14.01,2013-01-09 09:08:00,
2013-01-09 04:13:00,16.5,10.9,30.32,WNW,292,0.0,0.0,78,0.00,,---,0.00,VWS V14.01,2013-01-09 09:13:00,
2013-01-09 04:18:00,16.3,10.7,30.32,WNW,292,0.0,0.0,78,0.00,,---,0.00,VWS V14.01,2013-01-09 09:18:00,
2013-01-09 04:23:00,16.3,10.7,30.32,WNW,292,0.0,0.0,78,0.00,,---,0.00,VWS V14.01,2013-01-09 09:23:00,
2013-01-09 04:28:00,16.1,10.5,30.32,WNW,292,0.0,0.0,78,0.00,,---,0.00,VWS V14.01,2013-01-09 09:28:00,
2013-01-09 04:33:00,15.9,10.3,30.32,WNW,292,0.0,0.0,78,0.00,,---,0.00,VWS V14.01,2013-01-09 09:33:00,
2013-01-09 04:38:00,15.8,10.2,30.31,WNW,292,0.0,0.0,78,0.00,,---,0.00,VWS V14.01,2013-01-09 09:38:00,
2013-01-09 04:43:00,15.6,10.0,30.31,WNW,292,0.0,0.0,78,0.00,,---,0.00,VWS V14.01,2013-01-09 09:43:00,
2013-01-09 04:48:00,15.6,10.0,30.31,WNW,292,0.0,0.0,78,0.00,,---,0.00,VWS V14.01,2013-01-09 09:48:00,
2013-01-09 04:53:00,15.4,9.8,30.31,WNW,292,0.0,0.0,78,0.00,,---,0.00,VWS V14.01,2013-01-09 09:53:00,
2013-01-09 04:58:00,15.2,9.6,30.32,WNW,292,0.0,0.0,78,0.00,,---,0.00,VWS V14.01,2013-01-09 09:58:00,
2013-01-09 05:03:00,15.0,9.4,30.31,WNW,292,0.0,0.0,78,0.00,,---,0.00,VWS V14.01,2013-01-09 10:03:00,
2013-01-09 05:08:00,14.9,9.3,30.31,WNW,292,0.0,0.0,78,0.00,,---,0.00,VWS V14.01,2013-01-09 10:08:00,
2013-01-09 05:13:00,14.7,9.1,30.31,WNW,292,0.0,0.0,78,0.00,,---,0.00,VWS V14.01,2013-01-09 10:13:00,
2013-01-09 05:18:00,14.7,9.1,30.32,WNW,292,0.0,0.0,78,0.00,,---,0.00,VWS V14.01,2013-01-09 10:18:00,
2013-01-09 05:23:00,14.5,8.9,30.32,WNW,292,0.0,0.0,78,0.00,,---,0.00,VWS V14.01,2013-01-09 10:23:00,
2013-01-09 05:28:00,14.5,8.9,30.31,WNW,292,0.0,0.0,78,0.00,,---,0.00,VWS V14.01,2013-01-09 10:28:00,
2013-01-09 05:33:00,14.1,8.5,30.31,WNW,292,0.0,0.0,78,0.00,,---,0.00,VWS V14.01,2013-01-09 10:33:00,
2013-01-09 05:38:00,14.1,8.5,30.31,WNW,292,0.0,0.0,78,0.00,,---,0.00,VWS V14.01,2013-01-09 10:38:00,
2013-01-09 05:43:00,13.8,8.2,30.31,WNW,292,0.0,0.0,78,0.00,,---,0.00,VWS V14.01,2013-01-09 10:43:00,
2013-01-09 05:48:00,13.6,8.0,30.31,WNW,292,0.0,0.0,78,0.00,,---,0.00,VWS V14.01,2013-01-09 10:48:00,
2013-01-09 05:53:00,13.6,8.0,30.31,WNW,292,0.0,0.0,78,0.00,,---,0.00,VWS V14.01,2013-01-09 10:53:00,
2013-01-09 05:58:00,13.6,8.0,30.31,WNW,292,0.0,0.0,78,0.00,,---,0.00,VWS V14.01,2013-01-09 10:58:00,
2013-01-09 06:03:00,13.2,7.6,30.31,WNW,292,0.0,0.0,78,0.00,,---,0.00,VWS V14.01,2013-01-09 11:03:00,
2013-01-09 06:08:00,13.1,7.5,30.30,WNW,292,0.0,0.0,78,0.00,,---,0.00,VWS V14.01,2013-01-09 11:08:00,
2013-01-09 06:13:00,12.9,7.3,30.31,WNW,292,0.0,0.0,78,0.00,,---,0.00,VWS V14.01,2013-01-09 11:13:00,
2013-01-09 06:18:00,12.7,7.2,30.31,WNW,292,0.0,0.0,78,0.00,,---,0.00,VWS V14.01,2013-01-09 11:18:00,
2013-01-09 06:23:00,12.7,7.2,30.31,WNW,292,0.0,0.0,78,0.00,,---,0.00,VWS V14.01,2013-01-09 11:23:00,
2013-01-09 06:28:00,12.7,7.2,30.31,WNW,292,0.0,0.0,78,0.00,,---,0.00,VWS V14.01,2013-01-09 11:28:00,
2013-01-09 06:33:00,12.3,6.8,30.32,WNW,292,0.0,0.0,78,0.00,,---,0.00,VWS V14.01,2013-01-09 11:33:00,
2013-01-09 06:38:00,12.2,6.7,30.31,NW,315,0.0,0.0,78,0.00,,---,0.00,VWS V14.01,2013-01-09 11:38:00,
2013-01-09 06:43:00,12.0,6.5,30.30,NW,315,0.0,0.0,78,0.00,,---,0.00,VWS V14.01,2013-01-09 11:43:00,
2013-01-09 06:48:00,12.0,6.2,30.31,NW,315,0.0,0.0,77,0.00,,---,0.00,VWS V14.01,2013-01-09 11:48:00,
2013-01-09 06:53:00,11.8,6.0,30.31,NW,315,0.0,0.0,77,0.00,,---,0.00,VWS V14.01,2013-01-09 11:53:00,
2013-01-09 06:58:00,11.8,6.0,30.30,NW,315,0.0,0.0,77,0.00,,---,0.00,VWS V14.01,2013-01-09 11:58:00,
2013-01-09 07:03:00,11.6,5.8,30.31,NW,315,0.0,0.0,77,0.00,,---,0.00,VWS V14.01,2013-01-09 12:03:00,
2013-01-09 07:08:00,11.4,5.6,30.30,NW,315,0.0,0.0,77,0.00,,---,0.00,VWS V14.01,2013-01-09 12:08:00,
2013-01-09 07:13:00,11.3,5.5,30.31,NW,315,0.0,0.0,77,0.00,,---,0.00,VWS V14.01,2013-01-09 12:13:00,
2013-01-09 07:18:00,11.3,5.8,30.30,NW,315,0.0,0.0,78,0.00,,---,0.00,VWS V14.01,2013-01-09 12:18:00,
2013-01-09 07:23:00,11.1,5.6,30.30,WNW,292,0.0,0.0,78,0.00,,---,0.00,VWS V14.01,2013-01-09 12:23:00,
2013-01-09 07:28:00,10.9,5.4,30.30,WNW,292,0.0,0.0,78,0.00,,---,0.00,VWS V14.01,2013-01-09 12:28:00,
2013-01-09 07:33:00,10.7,4.9,30.30,WNW,292,0.0,0.0,77,0.00,,---,0.00,VWS V14.01,2013-01-09 12:33:00,
2013-01-09 07:39:00,10.5,4.7,30.30,WNW,292,0.0,0.0,77,0.00,,---,0.00,VWS V14.01,2013-01-09 12:39:00,
2013-01-09 07:44:00,10.4,4.9,30.30,WNW,292,0.0,0.0,78,0.00,,---,0.00,VWS V14.01,2013-01-09 12:44:00,
2013-01-09 07:49:00,10.2,4.7,30.29,WNW,292,0.0,0.0,78,0.00,,---,0.00,VWS V14.01,2013-01-09 12:49:00,
2013-01-09 07:54:00,10.0,4.5,30.29,WNW,292,0.0,0.0,78,0.00,,---,0.00,VWS V14.01,2013-01-09 12:54:00,
2013-01-09 07:59:00,10.0,4.5,30.29,WNW,292,0.0,0.0,78,0.00,,---,0.00,VWS V14.01,2013-01-09 12:59:00,
2013-01-09 08:04:00,10.0,4.5,30.29,WNW,292,0.0,0.0,78,0.00,,---,0.00,VWS V14.01,2013-01-09 13:04:00,
2013-01-09 08:09:00,9.6,4.1,30.29,WNW,292,0.0,0.0,78,0.00,,---,0.00,VWS V14.01,2013-01-09 13:09:00,
2013-01-09 08:14:00,9.6,4.1,30.29,WNW,292,0.0,0.0,78,0.00,,---,0.00,VWS V14.01,2013-01-09 13:14:00,
2013-01-09 08:19:00,9.6,4.1,30.29,WNW,292,0.0,0.0,78,0.00,,---,0.00,VWS V14.01,2013-01-09 13:19:00,
2013-01-09 08:24:00,9.6,4.1,30.28,WNW,292,0.0,0.0,78,0.00,,---,0.00,VWS V14.01,2013-01-09 13:24:00,
2013-01-09 08:29:00,9.5,4.0,30.28,WNW,292,0.0,0.0,78,0.00,,---,0.00,VWS V14.01,2013-01-09 13:29:00,
2013-01-09 08:35:00,9.3,3.8,30.28,WNW,292,0.0,0.0,78,0.00,,---,0.00,VWS V14.01,2013-01-09 13:35:00,
2013-01-09 08:40:00,9.3,3.8,30.28,WNW,292,0.0,0.0,78,0.00,,---,0.00,VWS V14.01,2013-01-09 13:40:00,
2013-01-09 08:45:00,9.3,3.8,30.28,WNW,292,0.0,0.0,78,0.00,,---,0.00,VWS V14.01,2013-01-09 13:45:00,
2013-01-09 08:50:00,9.3,3.8,30.29,WNW,292,0.0,0.0,78,0.00,,---,0.00,VWS V14.01,2013-01-09 13:50:00,
2013-01-09 08:55:00,9.3,3.8,30.29,WNW,292,0.0,0.0,78,0.00,,---,0.00,VWS V14.01,2013-01-09 13:55:00,
2013-01-09 09:00:00,9.3,3.8,30.30,WNW,292,0.0,0.0,78,0.00,,---,0.00,VWS V14.01,2013-01-09 14:00:00,
2013-01-09 09:05:00,9.5,4.0,30.29,WNW,292,0.0,0.0,78,0.00,,---,0.00,VWS V14.01,2013-01-09 14:05:00,
2013-01-09 09:10:00,9.6,4.1,30.28,WNW,292,0.0,0.0,78,0.00,,---,0.00,VWS V14.01,2013-01-09 14:10:00,
2013-01-09 09:15:00,9.6,4.1,30.28,WNW,292,0.0,0.0,78,0.00,,---,0.00,VWS V14.01,2013-01-09 14:15:00,
2013-01-09 09:20:00,9.6,4.1,30.27,WNW,292,0.0,0.0,78,0.00,,---,0.00,VWS V14.01,2013-01-09 14:20:00,
2013-01-09 09:25:00,9.6,4.1,30.26,WNW,292,0.0,0.0,78,0.00,,---,0.00,VWS V14.01,2013-01-09 14:25:00,
2013-01-09 09:30:00,9.6,4.4,30.26,WNW,292,0.0,0.0,79,0.00,,---,0.00,VWS V14.01,2013-01-09 14:30:00,
2013-01-09 09:35:00,10.0,4.8,30.25,WNW,292,0.0,0.0,79,0.00,,---,0.00,VWS V14.01,2013-01-09 14:35:00,
2013-01-09 09:40:00,10.2,5.0,30.25,WNW,292,0.0,0.0,79,0.00,,---,0.00,VWS V14.01,2013-01-09 14:40:00,
2013-01-09 09:45:00,10.2,5.0,30.25,WNW,292,0.0,0.0,79,0.00,,---,0.00,VWS V14.01,2013-01-09 14:45:00,
2013-01-09 09:50:00,10.4,5.2,30.25,WNW,292,0.0,0.0,79,0.00,,---,0.00,VWS V14.01,2013-01-09 14:50:00,
2013-01-09 09:55:00,10.5,5.3,30.24,WNW,292,0.0,0.0,79,0.00,,---,0.00,VWS V14.01,2013-01-09 14:55:00,
2013-01-09 10:00:00,10.5,5.3,30.22,WNW,292,0.0,0.0,79,0.00,,---,0.00,VWS V14.01,2013-01-09 15:00:00,
2013-01-09 10:05:00,10.7,5.5,30.21,WNW,292,0.0,0.0,79,0.00,,---,0.00,VWS V14.01,2013-01-09 15:05:00,
2013-01-09 10:10:00,10.9,5.7,30.20,WNW,292,0.0,0.0,79,0.00,,---,0.00,VWS V14.01,2013-01-09 15:10:00,
2013-01-09 10:15:00,10.9,5.7,30.21,WNW,292,0.0,0.0,79,0.00,,---,0.00,VWS V14.01,2013-01-09 15:15:00,
2013-01-09 10:20:00,11.1,5.9,30.21,NW,315,0.0,0.0,79,0.00,,---,0.00,VWS V14.01,2013-01-09 15:20:00,
2013-01-09 10:25:00,11.3,6.3,30.20,WNW,292,0.0,0.0,80,0.00,,---,0.00,VWS V14.01,2013-01-09 15:25:00,
2013-01-09 10:30:00,11.3,6.3,30.19,WNW,292,0.0,0.0,80,0.00,,---,0.00,VWS V14.01,2013-01-09 15:30:00,
2013-01-09 10:35:00,11.6,6.6,30.18,NW,315,0.0,0.0,80,0.00,,---,0.00,VWS V14.01,2013-01-09 15:35:00,
2013-01-09 10:40:00,11.8,6.8,30.17,WNW,292,0.0,0.0,80,0.00,,---,0.00,VWS V14.01,2013-01-09 15:40:00,
2013-01-09 10:45:00,12.0,7.0,30.14,WNW,292,0.0,0.0,80,0.00,,---,0.00,VWS V14.01,2013-01-09 15:45:00,
2013-01-09 10:50:00,12.2,7.5,30.14,WNW,292,0.0,0.0,81,0.00,,---,0.00,VWS V14.01,2013-01-09 15:50:00,
2013-01-09 10:55:00,12.3,7.6,30.15,WNW,292,0.0,0.0,81,0.00,,---,0.00,VWS V14.01,2013-01-09 15:55:00,
2013-01-09 11:00:00,12.7,8.0,30.15,WNW,292,0.0,0.0,81,0.00,,---,0.00,VWS V14.01,2013-01-09 16:00:00,
2013-01-09 11:05:00,12.9,8.2,30.16,WNW,292,0.0,0.0,81,0.00,,---,0.00,VWS V14.01,2013-01-09 16:05:00,
2013-01-09 11:10:00,13.1,8.4,30.17,NW,315,0.0,0.0,81,0.00,,---,0.00,VWS V14.01,2013-01-09 16:10:00,
2013-01-09 11:15:00,13.6,9.1,30.17,NW,315,0.0,0.0,82,0.00,,---,0.00,VWS V14.01,2013-01-09 16:15:00,
2013-01-09 11:20:00,13.8,9.6,30.17,WNW,292,0.0,0.0,83,0.00,,---,0.00,VWS V14.01,2013-01-09 16:20:00,
2013-01-09 11:25:00,14.1,9.9,30.16,SE,135,0.0,0.0,83,0.00,,---,0.00,VWS V14.01,2013-01-09 16:25:00,
2013-01-09 11:30:00,14.5,10.3,30.15,SE,135,0.0,0.0,83,0.00,,---,0.00,VWS V14.01,2013-01-09 16:30:00,
2013-01-09 11:35:00,15.2,11.0,30.15,WNW,292,0.0,0.0,83,0.00,,---,0.00,VWS V14.01,2013-01-09 16:35:00,
2013-01-09 11:40:00,15.6,11.6,30.15,WNW,292,0.0,0.0,84,0.00,,---,0.00,VWS V14.01,2013-01-09 16:40:00,
2013-01-09 11:45:00,16.3,12.6,30.14,WNW,292,0.0,0.0,85,0.00,,---,0.00,VWS V14.01,2013-01-09 16:45:00,
2013-01-09 11:50:00,16.8,13.1,30.14,WNW,292,0.0,0.0,85,0.00,,---,0.00,VWS V14.01,2013-01-09 16:50:00,
2013-01-09 11:55:00,17.4,13.7,30.13,SSE,158,0.0,0.0,85,0.00,,---,0.00,VWS V14.01,2013-01-09 16:55:00,
2013-01-09 12:00:00,17.9,14.2,30.13,SSE,158,0.0,0.0,85,0.00,,---,0.00,VWS V14.01,2013-01-09 17:00:00,
2013-01-09 12:05:00,19.0,15.5,30.13,SE,135,0.0,0.0,86,0.00,,---,0.00,VWS V14.01,2013-01-09 17:05:00,
2013-01-09 12:10:00,19.5,16.0,30.12,SE,135,0.0,0.0,86,0.00,,---,0.00,VWS V14.01,2013-01-09 17:10:00,
2013-01-09 12:15:00,20.1,16.6,30.11,SSE,158,0.0,0.0,86,0.00,,---,0.00,VWS V14.01,2013-01-09 17:15:00,
2013-01-09 12:20:00,21.0,17.8,30.11,South,180,0.0,0.0,87,0.00,,---,0.00,VWS V14.01,2013-01-09 17:20:00,
2013-01-09 12:25:00,21.5,18.2,30.10,SSE,158,0.0,0.0,87,0.00,,---,0.00,VWS V14.01,2013-01-09 17:25:00,
2013-01-09 12:30:00,22.2,18.9,30.09,West,270,0.0,0.0,87,0.00,,---,0.00,VWS V14.01,2013-01-09 17:30:00,
2013-01-09 12:35:00,23.5,20.2,30.09,SSE,158,5.1,5.1,87,0.00,,---,0.00,VWS V14.01,2013-01-09 17:35:00,
2013-01-09 12:40:00,24.6,21.3,30.08,SE,135,0.0,0.0,87,0.00,,---,0.00,VWS V14.01,2013-01-09 17:40:00,
2013-01-09 12:45:00,25.5,22.5,30.07,SSE,158,4.2,4.2,88,0.00,,---,0.00,VWS V14.01,2013-01-09 17:45:00,
2013-01-09 12:50:00,26.6,23.5,30.07,NNW,338,0.0,0.0,88,0.00,,---,0.00,VWS V14.01,2013-01-09 17:50:00,
2013-01-09 12:55:00,27.1,24.0,30.06,SSE,158,0.0,0.0,88,0.00,,---,0.00,VWS V14.01,2013-01-09 17:55:00,
2013-01-09 13:00:00,27.6,24.5,30.06,SE,135,0.0,0.0,88,0.00,,---,0.00,VWS V14.01,2013-01-09 18:00:00,
2013-01-09 13:05:00,28.7,25.3,30.04,WSW,248,0.0,0.0,87,0.00,,---,0.00,VWS V14.01,2013-01-09 18:05:00,
2013-01-09 13:10:00,29.1,25.7,30.03,West,270,0.0,0.0,87,0.00,,---,0.00,VWS V14.01,2013-01-09 18:10:00,
2013-01-09 13:15:00,29.3,25.9,30.04,SSE,158,0.0,0.0,87,0.00,,---,0.00,VWS V14.01,2013-01-09 18:15:00,
2013-01-09 13:20:00,30.0,26.3,30.04,NNW,338,0.0,0.0,86,0.00,,---,0.00,VWS V14.01,2013-01-09 18:20:00,
2013-01-09 13:25:00,30.5,26.8,30.04,NE,45,0.0,0.0,86,0.00,,---,0.00,VWS V14.01,2013-01-09 18:25:00,
2013-01-09 13:30:00,30.7,27.0,30.03,NE,45,0.0,0.0,86,0.00,,---,0.00,VWS V14.01,2013-01-09 18:30:00,
2013-01-09 13:35:00,30.9,26.9,30.02,SE,135,0.0,0.0,85,0.00,,---,0.00,VWS V14.01,2013-01-09 18:35:00,
2013-01-09 13:40:00,31.2,27.2,30.02,SE,135,0.0,0.0,85,0.00,,---,0.00,VWS V14.01,2013-01-09 18:40:00,
2013-01-09 13:41:00,31.2,27.2,30.01,SE,135,0.0,0.0,85,0.00,,---,0.00,VWS V14.01,2013-01-09 18:41:00,
2013-01-09 13:42:00,31.2,27.2,30.01,SE,135,0.0,0.0,85,0.00,,---,0.00,VWS V14.01,2013-01-09 18:42:00,
2013-01-09 13:44:00,31.2,27.2,30.01,SE,135,0.0,0.0,85,0.00,,---,0.00,VWS V14.01,2013-01-09 18:44:00,
2013-01-09 13:48:00,31.6,27.3,29.99,NW,315,0.0,0.0,84,0.00,,---,0.00,VWS V14.01,2013-01-09 18:48:00,
2013-01-09 13:49:00,31.6,27.3,29.99,NW,315,0.0,0.0,84,0.00,,---,0.00,VWS V14.01,2013-01-09 18:49:00,
2013-01-09 13:54:00,31.8,27.5,30.00,NE,45,0.0,0.0,84,0.00,,---,0.00,VWS V14.01,2013-01-09 18:54:00,
2013-01-09 13:59:00,31.8,27.5,30.00,NE,45,0.0,0.0,84,0.00,,---,0.00,VWS V14.01,2013-01-09 18:59:00,
2013-01-09 14:04:00,32.1,27.8,29.99,NE,45,0.0,0.0,84,0.00,,---,0.00,VWS V14.01,2013-01-09 19:04:00,
2013-01-09 14:09:00,32.1,27.8,30.00,SE,135,0.0,0.0,84,0.00,,---,0.00,VWS V14.01,2013-01-09 19:09:00,
2013-01-09 14:14:00,32.3,28.0,30.00,NW,315,0.0,0.0,84,0.00,,---,0.00,VWS V14.01,2013-01-09 19:14:00,
2013-01-09 14:19:00,32.7,28.4,30.01,NW,315,0.0,0.0,84,0.00,,---,0.00,VWS V14.01,2013-01-09 19:19:00,
2013-01-09 14:24:00,32.9,28.3,30.00,SE,135,7.6,7.6,83,0.00,,---,0.00,VWS V14.01,2013-01-09 19:24:00,
2013-01-09 14:29:00,33.0,28.4,30.00,WNW,292,0.0,0.0,83,0.00,,---,0.00,VWS V14.01,2013-01-09 19:29:00,
2013-01-09 14:34:00,33.2,28.6,30.00,NNW,338,0.0,0.0,83,0.00,,---,0.00,VWS V14.01,2013-01-09 19:34:00,
2013-01-09 14:39:00,33.6,28.7,30.00,NW,315,0.0,0.0,82,0.00,,---,0.00,VWS V14.01,2013-01-09 19:39:00,
2013-01-09 14:44:00,33.6,28.7,29.99,WNW,292,0.0,0.0,82,0.00,,---,0.00,VWS V14.01,2013-01-09 19:44:00,
2013-01-09 14:49:00,33.8,28.9,29.99,SSE,158,0.0,0.0,82,0.00,,---,0.00,VWS V14.01,2013-01-09 19:49:00,
2013-01-09 14:54:00,34.1,29.2,29.99,South,180,0.0,0.0,82,0.00,,---,0.00,VWS V14.01,2013-01-09 19:54:00,
2013-01-09 14:59:00,34.3,29.4,29.99,NW,315,0.0,0.0,82,0.00,,---,0.00,VWS V14.01,2013-01-09 19:59:00,
2013-01-09 15:04:00,34.3,29.4,29.99,SE,135,0.0,0.0,82,0.00,,---,0.00,VWS V14.01,2013-01-09 20:04:00,
2013-01-09 15:09:00,34.3,29.4,29.99,ESE,112,5.1,5.1,82,0.00,,---,0.00,VWS V14.01,2013-01-09 20:09:00,
2013-01-09 15:14:00,34.5,29.3,29.98,SE,135,2.2,2.2,81,0.00,,---,0.00,VWS V14.01,2013-01-09 20:14:00,
2013-01-09 15:19:00,34.7,29.5,29.98,NW,315,4.4,4.4,81,0.00,,---,0.00,VWS V14.01,2013-01-09 20:19:00,
2013-01-09 15:24:00,34.8,29.6,29.98,NW,315,0.0,0.0,81,0.00,,---,0.00,VWS V14.01,2013-01-09 20:24:00,
2013-01-09 15:29:00,34.8,29.6,29.98,NNW,338,0.0,0.0,81,0.02,,---,0.02,VWS V14.01,2013-01-09 20:29:00,
2013-01-09 15:34:00,34.8,29.6,29.97,North,0,0.0,0.0,81,0.02,,---,0.02,VWS V14.01,2013-01-09 20:34:00,
2013-01-09 15:39:00,34.8,29.6,29.98,SE,135,7.6,7.6,81,0.02,,---,0.02,VWS V14.01,2013-01-09 20:39:00,
2013-01-09 15:44:00,34.8,29.6,29.97,SE,135,0.0,0.0,81,0.02,,---,0.02,VWS V14.01,2013-01-09 20:44:00,
2013-01-09 15:49:00,34.8,29.6,29.97,SE,135,1.7,1.7,81,0.02,,---,0.02,VWS V14.01,2013-01-09 20:49:00,
2013-01-09 15:54:00,35.2,30.0,29.98,SE,135,0.0,0.0,81,0.02,,---,0.02,VWS V14.01,2013-01-09 20:54:00,
2013-01-09 15:59:00,35.2,30.0,29.98,SE,135,0.0,0.0,81,0.02,,---,0.02,VWS V14.01,2013-01-09 20:59:00,
2013-01-09 16:04:00,35.2,30.0,29.98,NNW,338,0.0,0.0,81,0.02,,---,0.02,VWS V14.01,2013-01-09 21:04:00,
2013-01-09 16:09:00,35.2,30.0,29.98,WSW,248,0.0,0.0,81,0.02,,---,0.02,VWS V14.01,2013-01-09 21:09:00,
2013-01-09 16:14:00,35.2,30.0,29.98,NNE,22,0.0,0.0,81,0.02,,---,0.02,VWS V14.01,2013-01-09 21:14:00,
2013-01-09 16:19:00,35.2,30.0,29.98,SSE,158,0.0,0.0,81,0.02,,---,0.02,VWS V14.01,2013-01-09 21:19:00,
2013-01-09 16:24:00,35.2,30.3,29.98,NNE,22,0.0,0.0,82,0.02,,---,0.02,VWS V14.01,2013-01-09 21:24:00,
2013-01-09 16:29:00,35.2,30.3,29.98,NNE,22,0.0,0.0,82,0.00,,---,0.02,VWS V14.01,2013-01-09 21:29:00,
2013-01-09 16:34:00,35.2,30.3,29.98,NNE,22,5.5,5.5,82,0.00,,---,0.02,VWS V14.01,2013-01-09 21:34:00,
2013-01-09 16:39:00,35.2,30.3,29.98,WSW,248,0.0,0.0,82,0.00,,---,0.02,VWS V14.01,2013-01-09 21:39:00,
2013-01-09 16:44:00,35.2,30.3,29.97,NW,315,6.2,6.2,82,0.00,,---,0.02,VWS V14.01,2013-01-09 21:44:00,
2013-01-09 16:49:00,35.2,30.3,29.98,WNW,292,0.0,0.0,82,0.00,,---,0.02,VWS V14.01,2013-01-09 21:49:00,
2013-01-09 16:54:00,35.2,30.3,29.98,NW,315,1.3,1.3,82,0.00,,---,0.02,VWS V14.01,2013-01-09 21:54:00,
2013-01-09 16:59:00,35.2,30.3,29.97,SE,135,0.0,0.0,82,0.00,,---,0.02,VWS V14.01,2013-01-09 21:59:00,
2013-01-09 17:04:00,35.2,30.3,29.98,WSW,248,0.0,0.0,82,0.00,,---,0.02,VWS V14.01,2013-01-09 22:04:00,
2013-01-09 17:09:00,35.2,30.3,29.98,NNW,338,0.0,0.0,82,0.00,,---,0.02,VWS V14.01,2013-01-09 22:09:00,
2013-01-09 17:14:00,35.2,30.3,29.99,North,0,0.0,0.0,82,0.00,,---,0.02,VWS V14.01,2013-01-09 22:14:00,
2013-01-09 17:19:00,35.2,30.3,29.99,SSW,202,0.0,0.0,82,0.00,,---,0.02,VWS V14.01,2013-01-09 22:19:00,
2013-01-09 17:24:00,35.2,30.3,29.99,NW,315,0.0,0.0,82,0.00,,---,0.02,VWS V14.01,2013-01-09 22:24:00,
2013-01-09 17:29:00,35.2,30.3,29.99,NNW,338,3.3,3.3,82,0.00,,---,0.02,VWS V14.01,2013-01-09 22:29:00,
2013-01-09 17:34:00,35.2,30.3,29.99,NW,315,3.8,3.8,82,0.00,,---,0.02,VWS V14.01,2013-01-09 22:34:00,
2013-01-09 17:39:00,35.2,30.3,29.99,NW,315,0.0,0.0,82,0.00,,---,0.02,VWS V14.01,2013-01-09 22:39:00,
2013-01-09 17:44:00,35.4,30.5,30.00,NNW,338,0.0,0.0,82,0.00,,---,0.02,VWS V14.01,2013-01-09 22:44:00,
2013-01-09 17:49:00,35.4,30.2,30.00,NW,315,7.1,7.1,81,0.00,,---,0.02,VWS V14.01,2013-01-09 22:49:00,
2013-01-09 17:54:00,35.6,30.4,29.99,NNW,338,0.0,0.0,81,0.00,,---,0.02,VWS V14.01,2013-01-09 22:54:00,
2013-01-09 17:59:00,35.6,30.4,30.00,NNW,338,6.0,6.0,81,0.00,,---,0.02,VWS V14.01,2013-01-09 22:59:00,
2013-01-09 18:04:00,35.7,30.5,30.00,SE,135,0.0,0.0,81,0.00,,---,0.02,VWS V14.01,2013-01-09 23:04:00,
2013-01-09 18:09:00,35.7,30.5,30.00,WNW,292,5.1,5.1,81,0.00,,---,0.02,VWS V14.01,2013-01-09 23:09:00,
2013-01-09 18:14:00,35.6,30.0,30.00,NW,315,4.2,4.2,80,0.00,,---,0.02,VWS V14.01,2013-01-09 23:14:00,
2013-01-09 18:19:00,35.4,29.9,30.00,West,270,0.0,0.0,80,0.00,,---,0.02,VWS V14.01,2013-01-09 23:19:00,
2013-01-09 18:24:00,35.4,29.9,30.01,NW,315,2.0,2.0,80,0.00,,---,0.02,VWS V14.01,2013-01-09 23:24:00,
2013-01-09 18:29:00,35.4,29.9,30.02,SW,225,3.3,3.3,80,0.02,,---,0.04,VWS V14.01,2013-01-09 23:29:00,
2013-01-09 18:34:00,35.4,29.9,30.02,West,270,0.0,0.0,80,0.02,,---,0.04,VWS V14.01,2013-01-09 23:34:00,
2013-01-09 18:39:00,35.4,29.9,30.02,NNW,338,1.3,6.4,80,0.02,,---,0.04,VWS V14.01,2013-01-09 23:39:00,
2013-01-09 18:44:00,35.4,29.9,30.03,NW,315,0.0,0.0,80,0.02,,---,0.04,VWS V14.01,2013-01-09 23:44:00,
2013-01-09 18:49:00,35.2,29.7,30.03,NW,315,0.0,0.0,80,0.02,,---,0.04,VWS V14.01,2013-01-09 23:49:00,
2013-01-09 18:54:00,35.2,29.7,30.03,WNW,292,0.0,0.0,80,0.02,,---,0.04,VWS V14.01,2013-01-09 23:54:00,
2013-01-09 18:59:00,35.2,29.7,30.03,NNE,22,0.0,0.0,80,0.02,,---,0.04,VWS V14.01,2013-01-09 23:59:00,
2013-01-09 19:04:00,35.2,29.7,30.03,NW,315,0.0,0.0,80,0.04,,---,0.06,VWS V14.01,2013-01-10 00:04:00,
2013-01-09 19:09:00,34.8,29.3,30.03,West,270,0.0,0.0,80,0.04,,---,0.06,VWS V14.01,2013-01-10 00:09:00,
2013-01-09 19:14:00,34.8,29.3,30.04,NNW,338,8.7,8.7,80,0.04,,---,0.06,VWS V14.01,2013-01-10 00:14:00,
2013-01-09 19:19:00,34.8,29.0,30.04,NNW,338,6.9,6.9,79,0.04,,---,0.06,VWS V14.01,2013-01-10 00:19:00,
2013-01-09 19:24:00,34.8,29.0,30.04,NNW,338,0.0,1.5,79,0.04,,---,0.06,VWS V14.01,2013-01-10 00:24:00,
2013-01-09 19:29:00,34.8,29.0,30.04,NW,315,6.4,6.4,79,0.02,,---,0.06,VWS V14.01,2013-01-10 00:29:00,
2013-01-09 19:34:00,34.8,29.0,30.04,SE,135,0.8,0.8,79,0.02,,---,0.06,VWS V14.01,2013-01-10 00:34:00,
2013-01-09 19:39:00,34.7,28.9,30.04,North,0,0.0,2.6,79,0.02,,---,0.06,VWS V14.01,2013-01-10 00:39:00,
2013-01-09 19:44:00,34.7,28.9,30.05,WNW,292,0.0,0.0,79,0.02,,---,0.06,VWS V14.01,2013-01-10 00:44:00,
2013-01-09 19:49:00,34.7,28.9,30.05,ENE,68,0.0,0.0,79,0.02,,---,0.06,VWS V14.01,2013-01-10 00:49:00,
2013-01-09 19:54:00,34.5,28.7,30.06,WNW,292,5.5,5.5,79,0.02,,---,0.06,VWS V14.01,2013-01-10 00:54:00,
2013-01-09 19:59:00,34.3,28.5,30.05,NW,315,11.1,11.1,79,0.02,,---,0.06,VWS V14.01,2013-01-10 00:59:00,
2013-01-09 20:04:00,34.3,28.5,30.06,West,270,2.4,2.4,79,0.00,,---,0.06,VWS V14.01,2013-01-10 01:04:00,
2013-01-09 20:09:00,34.3,28.2,30.05,NW,315,0.0,1.7,78,0.00,,---,0.06,VWS V14.01,2013-01-10 01:09:00,
2013-01-09 20:14:00,34.3,28.2,30.06,NW,315,5.5,5.5,78,0.00,,---,0.06,VWS V14.01,2013-01-10 01:14:00,
2013-01-09 20:19:00,34.3,28.2,30.05,North,0,9.1,9.1,78,0.00,,---,0.06,VWS V14.01,2013-01-10 01:19:00,
2013-01-09 20:24:00,34.3,28.2,30.05,ESE,112,0.0,0.0,78,0.00,,---,0.06,VWS V14.01,2013-01-10 01:24:00,
2013-01-09 20:29:00,34.3,28.2,30.05,North,0,3.3,3.3,78,0.00,,---,0.06,VWS V14.01,2013-01-10 01:29:00,
2013-01-09 20:34:00,34.3,28.2,30.05,NNW,338,0.0,0.0,78,0.00,,---,0.06,VWS V14.01,2013-01-10 01:34:00,
2013-01-09 20:39:00,34.3,28.2,30.05,NNW,338,4.2,4.2,78,0.00,,---,0.06,VWS V14.01,2013-01-10 01:39:00,
2013-01-09 20:44:00,34.1,28.0,30.05,NW,315,9.1,9.1,78,0.00,,---,0.06,VWS V14.01,2013-01-10 01:44:00,
2013-01-09 20:49:00,34.1,28.0,30.06,NNW,338,4.6,4.6,78,0.00,,---,0.06,VWS V14.01,2013-01-10 01:49:00,
2013-01-09 20:54:00,33.9,27.8,30.06,NW,315,8.7,8.7,78,0.00,,---,0.06,VWS V14.01,2013-01-10 01:54:00,
2013-01-09 20:59:00,33.9,28.1,30.06,NNW,338,0.0,0.0,79,0.00,,---,0.06,VWS V14.01,2013-01-10 01:59:00,
2013-01-09 21:04:00,33.9,28.1,30.05,SW,225,0.0,0.0,79,0.02,,---,0.08,VWS V14.01,2013-01-10 02:04:00,
2013-01-09 21:09:00,33.9,28.1,30.05,North,0,0.0,0.0,79,0.02,,---,0.08,VWS V14.01,2013-01-10 02:09:00,
2013-01-09 21:13:00,33.9,28.1,30.05,ESE,112,3.3,3.3,79,0.02,,---,0.08,VWS V14.01,2013-01-10 02:13:00,
2013-01-09 21:18:00,33.9,28.1,30.06,NW,315,0.0,0.0,79,0.02,,---,0.08,VWS V14.01,2013-01-10 02:18:00,
2013-01-09 21:23:00,33.9,28.4,30.06,NNE,22,0.0,0.0,80,0.02,,---,0.08,VWS V14.01,2013-01-10 02:23:00,
2013-01-09 21:29:00,33.9,28.4,30.06,NW,315,0.0,0.0,80,0.02,,---,0.08,VWS V14.01,2013-01-10 02:29:00,
2013-01-09 21:34:00,33.9,28.4,30.06,NW,315,6.2,6.2,80,0.02,,---,0.08,VWS V14.01,2013-01-10 02:34:00,
2013-01-09 21:39:00,33.8,28.3,30.06,NW,315,0.0,0.0,80,0.02,,---,0.08,VWS V14.01,2013-01-10 02:39:00,
2013-01-09 21:43:00,33.8,28.3,30.06,WSW,248,0.0,0.0,80,0.02,,---,0.08,VWS V14.01,2013-01-10 02:43:00,
2013-01-09 21:48:00,33.8,28.3,30.06,WNW,292,0.0,0.0,80,0.02,,---,0.08,VWS V14.01,2013-01-10 02:48:00,
2013-01-09 21:53:00,33.9,28.4,30.06,West,270,0.0,0.0,80,0.02,,---,0.08,VWS V14.01,2013-01-10 02:53:00,
2013-01-09 21:58:00,33.9,28.4,30.07,WNW,292,7.1,7.1,80,0.02,,---,0.08,VWS V14.01,2013-01-10 02:58:00,
2013-01-09 22:03:00,33.9,28.4,30.07,ENE,68,5.1,5.1,80,0.00,,---,0.08,VWS V14.01,2013-01-10 03:03:00,
2013-01-09 22:08:00,33.9,28.4,30.07,NW,315,2.6,2.6,80,0.00,,---,0.08,VWS V14.01,2013-01-10 03:08:00,
2013-01-09 22:13:00,33.9,28.4,30.07,NW,315,2.6,2.6,80,0.00,,---,0.08,VWS V14.01,2013-01-10 03:13:00,
2013-01-09 22:18:00,33.9,28.7,30.07,SE,135,0.0,0.0,81,0.00,,---,0.08,VWS V14.01,2013-01-10 03:18:00,
2013-01-09 22:23:00,33.8,28.6,30.07,NW,315,6.9,6.9,81,0.00,,---,0.08,VWS V14.01,2013-01-10 03:23:00,
2013-01-09 22:28:00,33.6,28.7,30.07,NW,315,3.3,3.3,82,0.00,,---,0.08,VWS V14.01,2013-01-10 03:28:00,
2013-01-09 22:33:00,33.6,28.7,30.08,ESE,112,0.0,0.0,82,0.00,,---,0.08,VWS V14.01,2013-01-10 03:33:00,
2013-01-09 22:38:00,33.4,28.5,30.09,NNE,22,0.0,0.0,82,0.00,,---,0.08,VWS V14.01,2013-01-10 03:38:00,
2013-01-09 22:43:00,33.2,28.6,30.10,NNW,338,1.1,1.1,83,0.00,,---,0.08,VWS V14.01,2013-01-10 03:43:00,
2013-01-09 22:48:00,32.9,28.6,30.10,West,270,0.0,0.0,84,0.00,,---,0.08,VWS V14.01,2013-01-10 03:48:00,
2013-01-09 22:53:00,32.9,28.3,30.10,ESE,112,0.0,0.0,83,0.00,,---,0.08,VWS V14.01,2013-01-10 03:53:00,
2013-01-09 22:58:00,32.7,28.1,30.11,NW,315,14.3,14.3,83,0.00,,---,0.08,VWS V14.01,2013-01-10 03:58:00,
2013-01-09 23:03:00,32.7,28.1,30.12,NE,45,9.1,9.1,83,0.00,,---,0.08,VWS V14.01,2013-01-10 04:03:00,
2013-01-09 23:08:00,32.5,27.9,30.12,NW,315,3.3,3.3,83,0.00,,---,0.08,VWS V14.01,2013-01-10 04:08:00,
2013-01-09 23:13:00,32.5,27.9,30.12,NW,315,3.3,3.3,83,0.00,,---,0.08,VWS V14.01,2013-01-10 04:13:00,
2013-01-09 23:32:00,32.1,27.2,30.13,NE,45,0.0,0.0,82,0.00,,---,0.08,VWS V14.01,2013-01-10 04:32:00,
2013-01-09 23:37:00,32.1,27.2,30.13,SE,135,0.0,0.0,82,0.00,,---,0.08,VWS V14.01,2013-01-10 04:37:00,
2013-01-09 23:42:00,32.1,27.2,30.13,North,0,0.0,0.0,82,0.00,,---,0.08,VWS V14.01,2013-01-10 04:42:00,
2013-01-09 23:47:00,32.1,27.2,30.13,NNW,338,20.8,20.8,82,0.00,,---,0.08,VWS V14.01,2013-01-10 04:47:00,
2013-01-09 23:52:00,31.8,26.9,30.14,NNE,22,0.0,0.0,82,0.00,,---,0.08,VWS V14.01,2013-01-10 04:52:00,
2013-01-09 23:57:00,32.0,27.1,30.14,North,0,2.4,2.4,82,0.00,,---,0.08,VWS V14.01,2013-01-10 04:57:00,